Location: Cherry Grove
(44.1968°N, 92.8624°W)
Time: 17:59:55
(UTC-06:00)

ISS - Visible Passes

Search period start: 18 February 2018 00:00
Search period end: 28 February 2018 00:00
Orbit: 403 x 407 km, 51.6° (Epoch: 19 February)

Date Brightness Start Highest point End Pass type
(mag) Time Alt. Az. Time Alt. Az. Time Alt. Az.
25 Feb -1.4 06:24:31 10° SSW 06:27:14 24° SE 06:29:58 10° E visible
26 Feb -0.9 05:33:24 10° SSE 05:35:10 14° SE 05:36:55 10° E visible
27 Feb -3.1 06:15:45 10° SW 06:18:57 55° SE 06:22:10 10° ENE visible
